Wind_Speed
7 5 5 6 7 6 4 4 4 5 7 6 4 3 3 2 1 3 5 6 6 4 4 5 6 6 7 8 8 7 8 9 10 11 12 13 13 14 14 13 12 12 12 12 14 16 17 17 18 19 20 19 16 11 6 2 1 3 4 5 7 9 11 12 14 15 15 14 13 13 13 14 15 15 15 16 17 18 17 17 18 18 17 16 15 13 11
5 5 5 4 6 5 5 6 6 5 6 8 7 5 4 5 6 6 10 12 9 4 3 4 5 4 5 7 7 9 10 11 12 13 13 13 14 14 14 13 13 12 13 14 15 17 17 17 17 17 18 18 17 15 11 6 3 1 3 5 7 8 9 11 12 13 13 12 12 13 13 13 14 15 15 17 18 20 20 21 22 21 20 19 18 16 15
1 3 5 5 5 6 5 5 5 4 5 6 6 5 5 7 8 7 9 12 8 3 2 4 3 3 5 9 11 11 10 10 12 14 14 14 13 13 13 13 13 13 13 15 16 17 17 16 15 15 15 16 18 20 18 15 10 5 3 3 5 8 9 11 12 12 12 12 13 14 14 15 15 16 17 19 20 21 22 22 22 21 20 20 19 19 19
3 1 2 2 5 6 4 2 1 3 3 2 3 3 2 2 6 8 7 7 5 4 4 5 5 6 9 12 11 10 9 10 13 14 14 13 12 12 12 12 12 12 13 14 16 16 16 16 15 15 14 16 19 21 22 21 18 12 8 6 5 6 8 10 11 11 12 12 13 15 15 15 15 15 17 17 17 19 22 22 21 20 20 20 20 21 21
3 2 4 4 3 2 3 3 1 2 2 3 3 4 4 3 2 5 3 5 7 6 5 6 8 10 11 10 8 8 9 10 12 12 12 12 11 11 11 11 12 12 12 13 14 15 15 15 16 17 18 18 19 20 21 22 21 18 15 12 9 6 6 8 9 10 11 11 12 14 13 12 11 11 12 12 12 14 18 19 18 17 19 22 21 21 22
3 4 5 5 3 3 1 2 3 2 1 4 5 5 5 4 2 2 5 8 9 8 6 8 10 9 9 8 7 7 7 8 10 11 11 11 11 11 11 11 11 12 13 14 16 17 17 18 19 21 21 20 19 19 19 19 19 19 18 16 15 12 8 6 7 8 9 10 11 13 13 12 11 10 9 9 10 12 14 14 14 13 15 19 20 20 21
4 5 5 5 4 2 3 5 2 2 4 9 12 11 8 7 6 8 11 11 9 9 8 8 10 9 8 8 8 8 8 7 8 10 10 10 10 10 10 10 11 13 14 14 16 17 18 20 21 22 22 21 19 17 17 18 18 16 14 14 15 14 13 9 6 6 7 8 9 10 12 13 14 14 12 11 12 14 14 13 12 12 13 15 17 18 17
3 5 5 4 1 2 4 4 3 5 6 6 9 10 8 7 4 6 11 11 9 9 9 8 8 8 7 8 8 8 8 8 8 9 9 9 9 9 9 9 11 12 12 13 13 15 17 17 19 20 21 21 19 17 16 16 17 15 13 12 12 12 13 12 10 8 6 5 6 7 8 10 13 14 13 13 13 14 15 13 12 13 14 14 15 15 16
2 3 2 0 1 2 1 3 3 2 2 1 2 4 5 4 4 2 9 11 9 8 7 6 4 2 3 6 7 7 8 8 8 8 9 8 9 9 9 9 10 10 12 13 13 15 16 16 17 19 19 18 18 17 16 16 16 14 13 12 11 11 12 12 12 11 8 5 5 5 5 6 9 10 10 10 10 10 11 11 11 12 13 14 14 14 14
1 2 2 1 1 2 3 4 1 1 1 1 1 2 4 2 2 1 5 8 7 6 4 4 2 1 1 4 4 6 8 8 7 8 9 9 9 9 9 10 10 11 13 13 13 15 16 16 17 19 18 17 15 14 15 16 15 13 12 11 12 12 13 13 13 12 10 7 5 6 6 7 8 9 9 9 9 9 10 10 10 11 11 11 11 10 10
1 2 3 3 2 1 1 1 1 3 1 2 2 2 4 2 0 0 4 5 4 3 2 3 3 2 1 3 3 4 6 7 7 7 8 9 9 9 10 11 11 12 14 15 15 17 18 18 20 20 19 18 14 11 12 14 14 13 12 13 14 14 14 15 14 12 11 9 7 6 7 8 9 11 11 10 10 9 10 11 11 11 11 12 13 12 11
1 1 1 1 1 1 2 2 4 4 1 3 4 4 4 4 2 1 4 5 4 2 2 2 2 1 0 2 3 4 5 5 6 7 8 9 10 10 11 12 12 12 14 15 16 17 17 19 21 21 21 20 16 12 12 13 12 12 13 15 16 16 16 16 15 14 13 11 10 9 8 9 11 13 12 11 11 11 11 13 13 13 14 14 15 14 13
1 1 1 0 0 1 1 3 5 4 1 4 4 2 3 5 4 3 3 5 4 3 3 2 2 3 3 3 3 4 4 5 6 7 7 7 8 9 10 11 12 12 12 13 14 15 17 19 21 21 21 20 17 15 14 13 12 13 15 16 16 17 17 17 16 15 14 13 13 12 11 11 13 14 13 13 13 13 13 14 14 15 15 15 15 15 14
1 1 1 0 0 1 2 4 4 2 2 3 2 2 2 4 5 4 3 4 4 4 5 5 3 3 3 3 4 4 5 5 6 7 8 9 9 10 10 11 13 13 13 13 13 15 18 20 20 21 21 19 17 17 16 15 15 17 18 17 17 17 17 17 17 16 15 14 13 14 13 12 13 15 16 16 16 15 15 16 16 17 17 17 17 17 15
1 2 2 1 1 2 4 4 2 1 1 2 4 4 3 3 5 4 3 3 3 3 4 4 3 3 3 4 4 4 4 5 6 7 9 10 11 11 12 13 14 14 14 14 14 15 17 19 19 18 18 17 17 17 18 19 20 21 20 19 18 19 19 18 17 17 16 15 14 13 13 12 12 15 18 19 19 19 19 19 20 20 20 19 17 17 16
0 1 2 1 0 3 4 2 2 4 4 3 4 4 4 3 3 3 3 4 3 2 3 3 3 3 3 3 4 4 5 6 7 8 9 10 11 11 12 13 13 13 13 14 15 16 16 17 17 15 14 14 15 17 20 22 23 23 23 22 21 20 19 19 19 18 17 16 16 15 14 12 11 13 18 21 21 22 22 22 23 23 22 21 19 18 17
2 2 3 2 1 3 4 4 6 7 6 4 3 4 5 4 2 2 3 4 4 3 3 3 3 4 4 3 4 4 5 5 6 7 8 9 9 10 11 12 12 13 13 13 15 16 15 15 14 13 12 13 15 18 20 22 22 22 22 22 21 20 19 19 19 19 18 17 17 17 17 16 13 12 14 19 21 22 22 23 24 24 22 21 19 17 16
4 5 4 2 2 4 6 6 6 6 6 5 4 5 4 3 2 2 2 3 4 3 3 3 3 3 2 2 2 3 4 5 6 7 7 8 9 10 10 11 12 13 13 13 14 15 15 15 14 13 13 13 15 18 19 20 21 21 20 19 19 20 20 19 19 19 19 18 18 17 17 18 17 15 14 16 17 18 17 17 20 23 24 22 19 17 15
3 3 2 2 2 3 3 4 4 4 4 4 3 3 3 2 3 3 3 3 3 3 4 4 3 2 2 2 3 3 3 5 6 7 7 8 9 10 11 12 14 14 15 15 15 16 17 16 15 15 15 15 16 17 18 18 19 19 19 19 19 20 20 20 19 18 17 18 19 18 17 17 17 18 19 17 16 19 21 19 17 18 20 21 21 19 17
1 3 4 3 1 1 1 1 2 2 3 4 4 3 3 3 4 4 3 3 3 3 3 3 3 4 3 4 5 5 5 6 7 8 9 10 12 12 13 14 15 15 15 16 17 18 19 18 18 19 19 19 18 19 19 19 18 19 19 19 19 20 20 19 19 18 17 18 19 18 17 17 16 16 20 21 19 21 24 22 18 15 15 17 19 18 16
3 3 3 3 2 2 2 2 1 1 2 4 5 4 4 4 4 4 4 4 4 3 3 3 4 5 5 5 5 6 6 7 8 10 12 13 14 14 14 14 14 14 15 15 17 18 19 20 20 20 20 20 20 20 20 20 19 19 20 20 20 20 20 18 19 19 19 19 19 17 16 16 15 14 17 22 23 23 22 20 19 18 18 19 18 14 13
3 2 5 6 3 2 3 4 3 3 2 3 4 4 4 3 3 3 3 3 2 2 2 2 3 5 6 6 7 7 8 9 11 13 14 15 15 15 15 15 14 14 14 15 17 19 19 19 19 20 20 21 21 21 21 20 19 20 20 20 21 21 19 18 18 19 18 18 19 18 17 17 16 14 14 17 22 26 27 25 23 21 21 23 23 23 24
1 2 6 7 1 2 2 4 5 4 2 2 3 3 3 4 3 3 3 2 1 1 1 2 3 5 7 7 8 9 10 12 13 13 14 15 16 16 16 15 15 15 16 17 18 19 19 19 19 20 21 22 22 22 21 21 21 21 20 21 21 21 20 19 19 18 17 17 17 17 17 17 17 15 13 12 14 18 22 24 26 27 26 26 26 27 29
2 2 6 5 2 3 3 3 4 4 2 2 3 3 3 4 4 3 2 1 1 2 3 4 4 5 7 8 8 9 11 13 14 14 15 15 15 15 15 14 15 17 18 18 18 19 20 20 20 21 22 22 23 23 22 22 22 22 22 22 22 21 21 21 20 18 18 17 16 15 16 16 15 15 15 13 12 12 12 12 15 19 21 23 25 24 24
2 2 4 3 3 4 3 3 3 3 2 2 3 2 3 3 3 3 1 1 1 3 5 5 5 5 6 7 8 9 11 13 14 15 15 14 14 14 14 14 16 17 18 19 19 20 20 21 21 22 22 23 23 23 23 22 22 23 23 24 24 23 21 21 21 20 18 17 15 15 15 15 15 15 16 17 17 17 13 10 10 12 13 15 19 19 18
2 5 6 4 4 4 3 2 2 2 3 3 3 3 3 2 1 2 1 1 2 3 4 5 6 6 6 7 8 9 11 14 14 14 13 13 13 13 14 15 16 17 19 20 20 20 20 21 22 22 22 23 23 23 22 22 22 23 24 24 25 25 23 21 20 20 19 17 16 14 14 14 15 16 16 18 20 20 16 13 13 14 14 13 14 16 17
4 6 6 5 3 2 2 2 2 3 5 4 3 3 3 1 1 1 1 1 2 3 3 4 5 6 6 7 8 10 12 13 13 13 12 12 13 14 14 16 17 18 19 18 18 19 20 21 21 21 22 23 23 23 22 22 23 23 24 24 24 25 26 25 23 21 19 18 16 15 14 14 15 17 18 19 20 20 18 17 16 15 12 10 10 12 14
4 2 2 2 2 3 3 2 3 5 5 4 3 3 3 2 2 2 2 2 2 2 3 3 4 5 6 8 9 10 12 13 13 12 12 12 13 14 14 16 17 18 17 17 17 17 19 20 21 22 23 24 25 24 24 24 24 24 24 23 23 23 23 24 25 23 20 19 18 16 15 14 14 17 19 20 21 20 18 18 17 15 11 10 10 10 12
3 1 2 2 2 3 5 5 5 6 5 3 3 4 4 3 2 2 2 2 2 2 3 3 4 5 6 8 9 11 12 13 13 12 12 12 13 13 14 15 16 16 15 15 15 17 19 21 22 23 25 27 28 28 28 26 25 24 24 22 22 22 20 19 20 20 19 18 18 18 17 15 15 17 20 21 21 20 15 13 16 16 14 14 15 16 17
2 2 2 3 4 5 7 7 6 6 5 4 4 4 3 3 2 2 2 2 3 3 3 4 5 5 6 7 9 10 11 12 11 11 11 11 12 13 14 14 15 15 13 14 16 19 22 23 23 24 28 30 31 30 30 28 25 24 22 21 21 22 21 18 18 17 16 17 17 17 17 17 16 16 18 19 20 19 15 12 16 18 18 19 20 20 21
4 4 4 4 4 5 6 6 6 6 5 4 4 4 3 3 3 3 3 3 3 3 3 4 5 6 6 7 8 9 10 10 10 9 9 10 12 14 15 14 13 13 14 16 20 22 23 23 24 28 31 31 31 30 28 26 24 22 19 17 18 19 20 19 18 17 15 14 14 14 15 14 13 13 16 17 17 16 14 14 16 19 20 20 20 20 25
6 5 4 3 3 3 4 4 5 6 5 4 4 4 4 4 4 4 4 4 4 3 3 4 5 6 8 9 8 8 10 10 9 8 9 12 14 16 17 15 13 14 15 17 19 21 21 23 26 29 31 30 29 28 24 22 22 19 12 9 10 13 15 17 18 17 14 13 12 12 12 12 11 12 15 16 16 15 15 16 17 17 17 16 15 17 25
6 3 3 3 3 3 4 5 6 6 5 5 4 4 4 5 5 6 6 5 5 4 5 5 5 5 8 10 9 9 11 10 7 7 12 16 17 17 17 17 16 15 15 15 16 18 21 23 25 28 30 28 27 25 22 20 19 16 10 3 4 7 10 13 14 13 11 10 11 11 11 12 12 12 13 14 14 14 13 13 13 13 12 12 12 17 24
4 3 3 4 5 6 6 6 6 5 4 4 4 4 5 5 6 6 6 6 6 6 7 6 3 3 8 10 9 8 9 8 6 8 14 17 17 17 17 18 17 16 15 16 18 22 25 25 25 27 28 26 24 23 21 18 15 13 9 5 1 2 4 7 9 8 7 7 8 8 10 12 12 12 13 13 12 11 11 10 10 10 11 12 12 15 21
3 3 2 3 4 5 5 6 6 6 4 4 4 5 5 6 6 6 6 6 6 7 7 5 3 3 7 8 7 6 8 7 7 10 13 14 14 15 16 18 19 18 18 20 22 25 27 27 26 26 25 22 22 23 21 16 13 11 9 7 4 3 1 2 5 5 4 4 5 7 10 12 11 11 11 10 10 10 10 10 10 10 11 12 12 14 19
4 3 2 2 4 5 5 5 6 7 6 5 5 5 5 6 7 6 6 6 5 6 5 4 5 5 7 7 5 4 6 7 7 9 11 12 12 13 14 16 17 17 18 21 24 26 27 26 26 25 21 18 20 22 19 15 13 12 10 8 7 5 4 4 5 5 5 5 5 7 9 10 9 9 8 8 8 9 9 10 11 11 11 13 16 19 22
6 5 3 4 5 6 6 6 7 8 7 6 6 6 6 7 8 8 6 5 4 4 3 3 5 6 6 5 4 2 4 6 7 9 11 11 11 12 13 14 15 13 13 17 22 25 25 25 25 24 19 16 17 20 19 15 13 12 11 10 9 8 7 7 6 6 7 7 7 8 9 9 9 8 8 7 7 8 9 11 13 14 15 17 20 22 23
6 7 6 6 7 8 8 7 8 7 7 6 7 7 7 8 9 9 7 4 3 3 3 3 3 4 4 3 3 3 4 5 7 9 11 12 12 12 11 11 13 12 12 15 19 21 21 22 22 22 19 16 15 17 18 17 16 14 13 12 11 11 11 10 9 9 8 8 8 8 9 9 10 9 9 9 9 9 10 13 15 17 18 21 23 24 24
5 6 7 7 8 9 8 7 7 8 7 7 7 7 8 8 8 8 7 5 3 3 3 2 3 2 2 3 3 4 4 5 7 9 11 12 13 12 8 8 12 13 13 15 17 17 18 19 19 18 18 17 16 16 17 18 18 17 17 15 14 14 13 12 11 10 10 9 9 9 9 9 10 10 10 11 11 11 13 15 17 19 21 24 25 24 23
5 6 8 9 9 9 9 8 8 9 9 8 8 8 9 9 9 7 6 5 4 3 3 2 3 2 2 2 3 3 3 4 7 9 10 12 13 11 7 7 13 16 16 16 17 16 16 17 16 15 16 17 17 16 18 18 17 16 16 17 17 16 16 15 15 13 12 12 12 12 11 12 12 12 12 13 14 14 14 15 18 21 24 26 25 23 21
6 8 9 9 9 10 10 10 9 10 9 9 9 10 10 10 9 8 6 5 4 3 3 2 3 2 1 2 2 3 3 4 6 8 9 9 10 8 6 8 14 16 16 15 16 16 15 16 16 16 15 15 14 15 17 18 17 14 14 15 16 16 17 17 18 18 18 17 16 15 14 14 14 13 13 14 15 15 15 16 19 24 25 24 22 21 19
7 8 9 9 10 11 12 12 10 9 9 10 10 10 10 10 8 8 6 5 4 3 3 3 3 3 2 2 2 2 2 3 5 6 6 6 6 6 6 8 13 15 14 14 15 15 16 16 16 15 14 13 12 12 13 16 17 16 14 12 13 13 14 15 16 17 17 17 17 17 17 17 18 17 16 15 15 18 19 21 23 24 23 21 19 18 18
10 10 9 9 11 13 14 13 12 11 11 11 11 10 10 9 7 7 7 6 5 4 3 3 4 4 2 2 2 2 2 3 4 5 4 3 4 6 7 8 11 13 12 13 14 15 15 15 14 13 13 12 12 12 13 15 17 17 16 14 12 12 12 12 13 14 14 14 15 17 18 19 21 22 21 19 20 22 23 23 22 21 19 18 17 17 18
12 12 12 12 12 13 13 12 11 11 11 11 11 10 9 8 7 8 7 6 6 5 4 4 5 5 3 2 1 1 1 2 3 3 3 2 2 5 8 10 11 11 11 11 13 14 14 14 13 13 12 12 12 13 14 16 16 17 17 16 13 12 12 12 12 12 12 12 14 16 18 19 19 19 19 19 19 20 20 19 18 18 18 17 18 19 20
11 14 14 13 11 11 12 12 12 12 12 12 11 10 9 8 8 8 9 7 6 5 5 5 5 6 5 4 2 0 0 0 1 2 2 2 2 4 8 11 12 11 9 9 11 12 13 13 13 13 13 12 13 14 16 17 17 17 17 16 13 12 12 12 12 12 12 11 11 12 13 14 13 12 12 13 15 15 16 15 14 13 13 13 14 16 18
12 13 13 12 12 13 14 14 14 14 13 10 9 10 11 10 9 9 10 10 8 5 4 4 5 5 5 5 4 3 2 2 1 1 1 2 2 4 7 9 10 9 8 8 10 11 11 11 12 12 12 13 14 16 17 18 18 18 18 18 15 13 11 11 12 11 11 11 11 11 11 11 11 11 12 13 14 14 14 13 11 11 11 11 11 12 14
13 12 12 13 14 14 14 13 11 11 10 8 7 10 13 13 11 11 12 11 9 6 5 4 4 4 5 6 6 5 4 3 2 1 0 1 3 3 5 7 9 8 6 7 9 10 10 10 11 12 12 13 15 17 18 18 18 19 20 20 20 18 16 15 15 13 12 12 12 13 13 12 12 12 12 13 13 13 12 12 12 12 12 11 11 11 10
12 12 13 13 13 11 10 10 9 9 10 11 12 14 15 14 13 13 13 13 12 10 8 7 6 5 5 6 6 6 5 4 2 2 2 1 2 2 3 4 7 7 5 6 8 8 8 9 10 10 11 12 14 16 17 17 18 19 19 19 19 19 18 17 16 16 15 14 14 13 12 12 11 11 11 11 12 11 11 11 11 11 10 10 10 9 8
12 12 11 10 9 9 9 9 9 9 12 16 17 17 16 14 12 13 15 16 16 15 13 11 9 8 6 6 6 6 6 5 3 3 3 2 1 2 2 3 5 6 5 6 7 7 7 7 8 8 9 12 14 16 18 19 19 20 20 20 19 18 17 15 13 12 12 12 12 11 11 11 11 10 10 10 10 10 10 10 10 9 9 9 8 8 8
10 10 9 9 10 11 11 11 11 13 17 18 18 17 15 12 11 13 16 18 19 18 16 15 13 12 10 8 7 7 7 7 5 4 4 3 1 1 1 2 3 4 4 6 7 7 7 7 8 9 11 13 15 17 19 20 20 20 20 20 20 20 19 18 16 15 13 11 10 10 11 11 11 11 11 11 11 11 11 11 11 10 10 10 10 9 8
10 10 10 11 12 13 13 14 15 17 18 18 17 16 15 14 13 15 17 19 19 19 17 16 15 15 14 12 10 9 8 8 7 7 6 4 3 1 1 1 2 2 3 5 7 8 8 8 10 11 13 15 16 17 17 18 19 19 19 19 19 18 18 18 18 17 15 14 13 13 12 12 12 13 13 13 13 13 13 12 12 11 10 10 9 9 8
12 12 12 12 12 13 14 15 16 17 17 16 16 15 15 15 15 14 15 17 19 21 19 17 16 17 17 16 14 12 11 10 9 9 8 7 5 3 2 1 2 2 3 5 6 7 8 8 9 11 13 14 16 16 16 16 17 18 19 18 18 17 17 16 16 16 16 16 16 16 15 15 16 16 15 15 14 14 14 14 13 13 12 12 12 11 10
Wind_Direction
48 54 61 71 82 86 79 49 20 11 16 25 50 44 349 294 173 149 129 108 101 87 52 40 37 41 61 65 59 62 66 68 69 65 61 59 56 55 54 51 51 52 50 48 47 46 46 45 45 46 49 54 56 54 52 40 291 267 264 260 257 258 259 261 264 264 261 252 234 222 222 228 229 227 227 230 230 227 224 222 218 218 222 221 216 211 213
25 12 9 43 75 81 71 47 29 28 49 59 68 59 37 56 74 97 113 105 94 91 77 54 53 62 75 74 67 65 65 65 67 66 62 59 57 55 54 51 50 49 47 46 45 45 44 42 43 44 44 48 53 54 53 49 40 353 289 277 276 276 274 273 273 271 267 255 234 223 223 228 230 229 228 227 223 218 218 217 217 221 225 220 216 221 226
325 336 352 359 37 61 65 57 45 35 44 61 78 85 77 77 82 92 100 98 95 86 64 74 86 90 81 75 67 62 60 61 67 68 62 59 57 55 54 52 51 50 47 45 44 43 42 39 40 41 39 43 49 52 51 48 44 39 16 333 300 292 287 282 279 274 264 251 237 234 235 237 236 233 229 226 219 215 215 217 219 225 225 218 220 230 233
200 182 57 23 25 30 3 333 59 38 24 50 79 79 51 93 127 129 113 100 111 121 108 99 95 85 78 72 66 64 60 57 63 66 62 58 55 51 50 48 46 46 44 43 41 40 40 37 37 35 33 38 44 46 48 49 47 45 40 22 342 314 301 291 288 283 270 257 248 247 250 249 246 241 236 233 225 222 225 227 230 230 227 226 228 228 225
170 109 113 113 77 27 301 297 354 61 86 123 105 61 21 354 154 153 139 123 128 133 129 108 88 78 73 68 61 61 59 57 59 60 58 56 50 45 44 41 38 36 34 35 34 34 35 33 34 35 34 36 37 38 43 45 46 49 47 41 28 1 326 302 296 292 283 273 265 260 260 258 256 251 244 241 238 237 238 237 235 229 225 229 232 226 222
140 114 114 122 152 193 256 333 296 273 108 112 103 72 32 15 40 105 103 117 130 136 130 110 95 84 75 70 60 50 49 54 58 57 54 51 47 44 41 38 35 30 26 26 26 27 28 29 31 35 34 32 31 31 34 37 41 46 48 47 46 37 19 345 312 299 290 284 278 271 266 262 262 260 253 249 251 252 249 241 231 222 221 224 227 225 225
123 127 128 142 181 229 347 347 292 202 125 107 97 78 50 44 80 106 111 120 131 130 119 111 104 98 88 78 66 52 45 45 54 58 53 46 43 39 34 31 28 25 21 19 19 20 24 26 28 29 27 25 23 23 26 28 31 35 37 38 42 41 37 30 6 332 308 295 286 278 269 262 260 260 260 259 257 255 251 241 228 222 221 221 222 222 220
127 152 161 171 218 339 10 34 89 127 132 121 99 78 51 30 39 101 116 120 126 124 120 116 111 108 102 86 67 53 46 41 46 53 48 42 39 36 30 23 19 17 14 11 10 13 19 23 23 21 20 19 17 15 15 17 20 23 24 24 27 26 24 23 18 4 341 315 299 287 270 256 251 251 252 250 248 247 245 239 231 227 225 224 224 221 217
130 143 151 134 337 315 134 117 117 131 135 132 100 89 73 28 355 80 121 127 132 134 133 132 123 124 115 91 64 44 39 36 40 47 44 39 36 33 28 21 16 14 12 10 10 13 18 22 20 15 13 12 12 11 7 5 7 9 11 13 12 5 360 1 2 356 346 326 302 287 270 248 238 235 233 229 225 224 225 222 219 219 220 222 223 220 219
105 127 136 142 209 231 180 145 111 20 33 269 244 125 106 69 350 62 130 135 142 154 166 166 168 223 137 96 65 34 29 26 29 39 39 35 33 29 24 19 15 12 12 11 11 11 13 15 12 9 7 5 5 5 2 359 357 356 355 351 346 342 341 344 347 349 344 330 305 280 261 243 227 218 214 211 205 202 202 202 200 200 202 201 195 189 190
148 161 169 179 190 220 68 105 359 336 314 224 215 162 137 129 45 144 136 128 127 146 168 156 160 194 193 117 80 26 19 22 25 28 26 24 26 24 22 19 13 8 8 8 7 8 8 5 1 359 358 358 358 357 353 349 347 347 346 341 334 328 324 323 326 331 332 328 317 294 267 244 222 212 208 204 196 189 186 184 179 173 169 161 151 145 144
122 139 157 215 196 37 7 330 314 323 335 162 187 193 163 144 154 160 124 113 100 89 111 135 144 157 104 98 75 20 10 25 32 27 20 16 16 16 16 15 9 4 6 5 4 3 1 357 353 351 350 350 350 347 342 338 336 339 339 338 334 328 320 315 313 314 316 315 315 309 285 251 225 211 207 205 197 186 181 178 171 163 157 151 143 136 133
97 139 134 340 225 154 304 303 314 325 198 180 200 198 132 126 143 146 109 103 90 63 64 80 81 63 50 57 54 28 20 28 29 23 16 11 10 9 7 5 2 358 359 359 356 352 348 346 346 344 344 344 342 338 335 331 329 330 329 328 326 324 321 316 311 309 307 304 302 302 294 265 234 217 210 207 199 189 184 180 171 163 159 152 143 137 134
88 133 124 226 192 101 342 309 306 296 216 192 164 107 101 120 130 128 105 102 97 75 70 74 75 67 56 48 42 34 29 25 15 8 5 2 2 1 357 359 359 354 348 346 346 342 339 338 337 336 336 335 332 330 327 323 321 323 323 319 316 314 313 310 307 306 304 300 294 293 294 279 246 225 214 206 199 192 186 179 171 164 159 152 145 140 138
129 124 124 190 176 53 350 308 275 353 26 126 118 114 120 120 119 120 110 101 103 96 86 85 84 78 71 59 40 28 26 20 6 1 1 357 353 353 351 352 353 349 341 337 336 334 333 332 331 332 329 325 321 317 311 308 311 314 315 314 311 308 304 302 301 299 298 297 290 280 282 285 264 235 217 204 197 194 187 179 174 169 162 157 152 148 146
258 144 126 125 357 354 341 325 105 75 76 115 129 119 118 119 117 116 105 96 101 98 86 81 81 75 66 50 30 15 10 7 358 353 354 351 348 347 344 342 343 341 334 329 326 325 325 325 325 325 321 315 309 303 298 298 301 303 304 306 307 304 301 298 295 293 293 294 289 275 266 274 275 250 225 209 199 194 190 183 178 173 168 163 160 156 152
41 65 86 86 26 8 26 59 85 87 87 89 84 87 96 102 104 105 92 90 92 87 70 62 62 57 44 30 25 9 354 348 345 342 342 340 338 335 332 331 333 331 324 318 316 314 315 316 316 314 311 304 296 293 295 298 299 298 299 300 301 300 299 296 293 291 289 288 288 283 269 260 259 248 228 213 201 194 192 188 182 177 172 169 165 159 155
88 62 56 63 62 51 44 49 61 70 72 65 62 74 81 75 79 83 70 77 85 80 73 69 64 64 49 13 4 355 336 328 330 331 330 329 329 327 326 326 328 325 320 316 313 311 312 313 311 308 304 296 289 289 294 297 297 296 295 293 292 291 291 291 290 289 287 283 283 286 281 266 253 237 223 216 208 201 199 198 191 184 179 176 173 167 163
114 101 130 133 74 62 49 46 54 57 56 49 42 53 63 57 60 64 63 75 81 70 66 65 52 52 55 3 344 343 332 327 329 330 331 331 330 328 326 328 328 326 322 318 316 314 314 314 313 309 306 299 293 293 294 294 294 293 290 285 282 280 279 281 282 282 282 280 277 280 284 281 265 242 228 225 221 213 207 205 202 195 186 180 177 174 172
58 112 142 144 75 47 36 67 87 99 95 81 62 61 77 77 66 62 61 66 67 54 51 48 20 3 5 357 345 339 332 329 330 332 334 333 330 328 326 326 325 323 319 316 315 314 314 314 313 310 306 303 299 297 295 293 291 288 284 281 278 275 272 272 272 272 273 275 274 273 276 281 278 256 236 229 228 223 214 203 194 195 193 187 181 178 178
89 98 137 158 158 179 203 195 149 131 115 100 86 81 89 92 85 80 70 62 60 48 39 29 357 343 343 347 342 333 325 327 332 332 331 329 325 323 322 320 319 317 314 313 313 311 311 311 310 307 304 303 301 298 295 293 289 284 281 280 278 275 271 267 264 264 266 267 268 268 269 271 276 269 248 234 229 229 225 212 202 200 200 202 205 208 218
136 157 169 170 164 167 192 189 159 130 113 102 97 97 106 115 116 112 99 83 67 45 24 358 334 330 328 330 331 324 320 324 327 325 323 322 319 319 320 319 318 317 314 312 309 306 305 305 303 301 299 299 298 296 294 290 286 281 279 279 277 274 269 264 259 257 257 258 259 261 263 263 264 268 263 244 231 229 230 229 230 229 220 217 227 239 246
156 183 169 166 136 51 135 161 148 136 127 104 103 109 121 131 140 143 127 107 45 359 343 308 309 315 315 319 323 320 318 322 322 321 322 322 321 322 322 322 320 318 316 313 308 303 303 302 300 298 297 295 294 293 291 287 282 277 274 273 273 272 269 265 261 256 253 252 252 254 257 257 253 249 246 238 229 231 235 236 238 239 234 229 232 239 242
68 139 162 160 91 60 93 131 133 130 130 105 101 108 127 141 155 159 128 54 354 330 317 307 310 316 315 317 322 321 320 323 324 324 324 322 321 321 322 321 319 317 314 311 307 304 304 303 301 301 298 294 292 291 289 286 281 275 268 265 264 267 268 268 268 265 258 251 247 247 250 252 246 232 222 219 222 227 232 232 235 238 235 231 231 236 237
64 110 138 132 80 76 89 105 102 95 95 108 112 131 146 147 156 169 163 12 341 313 309 310 321 330 325 323 326 326 324 324 324 324 323 321 321 321 319 318 317 314 311 309 306 306 306 305 303 301 297 293 293 292 289 286 282 275 268 261 257 257 260 264 267 267 262 256 248 242 241 244 241 229 217 215 219 221 222 231 248 253 246 235 229 227 228
78 104 110 99 76 81 107 123 115 119 134 127 124 154 169 167 173 185 212 306 317 315 313 313 322 333 332 326 326 326 324 323 324 324 322 321 321 320 318 317 315 311 308 308 307 306 305 304 302 300 298 297 299 298 294 290 284 277 270 263 256 252 251 252 257 260 261 258 251 242 236 235 237 235 227 221 220 218 215 217 229 237 241 242 237 231 230
120 122 119 113 107 145 194 198 146 143 151 152 156 166 173 186 204 192 203 265 287 298 302 302 313 325 329 323 321 323 325 325 325 325 323 320 318 317 316 314 311 309 308 308 307 306 306 305 305 304 302 304 307 306 301 295 288 279 271 264 259 254 248 246 247 250 254 256 253 247 241 234 231 233 231 225 221 216 206 195 191 193 199 209 223 230 230
134 125 98 106 151 196 201 184 139 137 146 158 163 153 146 147 163 199 232 246 256 280 295 300 303 314 325 327 324 325 326 326 325 323 320 316 315 315 316 314 312 311 309 306 306 307 309 311 312 309 309 313 315 312 308 301 292 282 274 265 258 253 248 243 241 240 245 251 251 245 240 237 232 229 229 226 220 213 203 191 185 181 179 182 188 192 192
145 134 69 78 101 121 123 129 139 144 145 152 151 147 157 176 187 219 250 248 247 277 299 306 300 302 315 325 329 330 328 326 323 318 313 313 316 319 320 318 315 311 306 305 309 314 317 319 317 316 319 323 324 320 316 309 298 286 276 264 253 248 244 239 235 233 237 245 246 240 237 242 239 230 226 223 217 209 198 187 185 185 186 185 180 172 171
118 111 105 107 119 129 132 141 156 161 160 164 165 163 179 210 229 253 256 237 243 267 289 303 307 307 308 314 324 328 324 319 314 307 305 312 321 325 326 325 321 318 316 317 320 323 324 324 324 326 329 330 331 330 326 319 308 296 282 266 252 245 241 236 232 230 234 241 243 237 236 242 241 225 216 213 210 206 201 191 185 183 182 181 175 168 169
104 95 105 117 140 156 155 155 165 170 169 173 181 185 195 216 240 259 256 239 246 266 284 294 299 304 306 308 312 316 315 311 305 300 306 321 332 336 338 335 327 319 317 320 324 327 328 327 330 334 337 338 340 340 333 324 319 311 293 270 254 244 240 237 233 229 231 238 238 230 229 236 234 217 206 204 203 200 199 196 191 186 182 178 175 172 171
111 101 107 123 153 173 167 166 175 180 180 182 195 206 212 219 242 259 258 251 255 264 279 290 294 304 318 320 311 308 314 313 304 306 328 340 343 345 346 343 332 320 319 325 330 332 332 333 335 338 342 345 347 344 339 336 339 337 320 277 247 238 237 237 231 227 228 233 229 220 219 224 221 205 196 195 195 194 194 195 192 188 181 173 170 172 172
137 139 152 164 176 188 194 194 193 191 188 194 209 226 231 233 247 257 259 261 261 257 265 280 289 312 329 327 314 311 322 322 313 326 345 349 348 349 350 347 339 333 336 342 343 341 344 345 343 344 349 353 350 347 348 352 355 357 357 333 240 234 238 235 227 221 223 223 217 213 215 219 215 199 187 185 187 186 185 182 178 173 169 166 168 173 176
165 171 179 180 188 201 207 203 197 195 200 209 224 241 248 248 252 257 260 258 254 257 267 272 276 319 331 323 311 317 333 337 331 337 343 346 347 348 351 352 348 347 356 1 355 354 360 0 353 350 354 357 355 356 0 3 2 3 10 17 9 250 244 230 217 210 206 201 199 204 210 211 207 194 181 176 174 173 171 167 163 163 167 170 176 181 179
150 124 136 186 204 210 209 199 192 192 198 211 226 240 252 262 267 269 267 261 259 267 272 261 242 296 319 312 302 321 342 346 342 340 340 342 347 349 352 354 353 355 4 7 2 1 5 5 1 359 360 0 3 9 12 10 8 9 13 19 29 35 58 184 184 177 164 157 163 178 187 190 188 181 171 161 156 159 161 158 158 164 169 167 169 175 173
161 143 139 190 198 194 194 193 191 189 194 211 232 245 264 282 288 284 277 273 274 283 283 255 236 265 295 294 286 318 345 346 347 349 348 349 354 358 358 356 353 353 357 0 1 4 6 5 5 7 5 0 6 16 20 21 20 19 22 29 38 52 80 107 125 127 116 110 127 152 163 164 160 154 147 139 142 151 151 147 151 163 168 164 161 161 160
187 183 172 170 173 175 180 185 188 193 202 219 237 253 270 288 298 297 290 287 293 299 297 265 241 255 280 284 269 303 348 351 355 3 4 4 8 10 6 1 358 355 351 349 353 360 4 4 5 11 11 4 7 18 27 33 33 32 37 46 55 66 80 88 94 99 100 101 112 127 134 132 126 124 120 117 124 134 134 136 147 156 157 154 153 152 151
190 191 189 180 177 181 185 188 195 206 216 227 245 263 277 290 299 299 292 289 303 311 306 286 253 258 288 294 263 273 333 353 2 9 11 12 16 18 13 5 1 356 345 341 346 354 1 3 7 13 16 13 10 18 31 44 50 48 49 53 60 69 77 81 82 85 89 94 101 108 113 115 113 110 107 107 113 120 124 131 140 145 144 143 146 148 150
178 187 195 193 191 194 198 199 206 218 225 233 252 274 289 297 301 297 285 279 293 307 299 271 231 239 296 301 266 270 315 346 359 5 7 10 16 20 18 10 5 359 352 351 354 358 3 7 11 17 24 26 25 27 38 50 57 58 58 59 60 65 73 78 79 80 83 90 97 100 103 105 106 104 105 108 112 119 126 131 135 136 137 139 143 146 149
182 190 196 198 201 203 205 207 217 229 237 245 258 275 290 299 300 291 277 270 277 292 290 257 225 232 298 307 273 269 302 335 349 357 0 4 9 14 15 8 6 5 4 5 8 10 11 14 19 27 32 36 39 43 49 55 56 55 59 63 64 65 69 74 78 81 84 87 93 97 99 101 102 102 105 109 113 117 121 125 127 130 134 137 141 144 146
202 201 199 202 207 210 211 215 224 234 244 254 264 277 291 298 291 278 267 264 268 274 278 261 237 236 282 314 291 283 300 326 341 349 354 358 1 4 2 1 3 5 5 8 13 17 20 23 28 33 37 41 46 52 58 62 60 55 55 60 64 67 70 72 76 82 86 88 91 94 96 100 101 101 102 107 111 114 118 120 123 128 132 135 136 138 139
209 204 202 205 212 217 220 223 227 234 245 257 268 281 295 299 284 266 260 263 263 262 268 266 249 244 271 329 328 313 312 323 333 342 349 354 356 357 355 355 359 3 6 10 16 23 29 32 34 35 38 44 49 54 61 67 69 66 61 58 60 65 69 71 75 81 85 87 91 93 96 100 104 104 102 103 106 114 119 122 124 127 130 132 134 137 140
216 209 205 207 214 220 224 226 228 232 244 255 264 275 291 296 279 256 252 259 258 254 256 256 245 238 252 325 344 341 334 335 339 339 335 340 359 7 4 358 358 3 10 17 22 27 33 38 40 40 40 43 49 58 66 71 74 74 71 65 60 62 65 68 73 78 80 83 88 92 95 99 103 106 106 106 109 115 119 121 123 127 130 133 138 143 147
221 218 217 219 222 223 224 224 223 226 236 248 255 265 282 288 273 251 246 253 258 257 255 253 246 239 241 267 325 359 359 350 349 342 326 318 4 14 9 6 6 10 16 23 28 33 38 43 47 48 47 46 50 60 69 75 79 79 77 72 65 61 63 64 66 69 74 79 85 92 96 98 99 101 103 106 108 112 114 116 120 126 131 135 140 144 146
226 229 229 228 225 222 220 219 220 223 230 240 248 256 269 278 269 252 244 248 256 259 257 257 253 246 238 236 236 219 185 189 19 5 352 342 353 2 5 8 11 14 21 31 36 39 44 49 53 55 56 57 60 64 70 75 79 79 77 74 69 64 65 67 67 68 72 75 77 83 90 93 93 93 98 102 106 108 110 110 111 115 119 125 130 134 136
232 234 234 230 229 231 232 231 229 229 231 235 241 247 255 261 260 249 242 243 249 253 251 252 254 249 238 228 219 204 194 198 182 55 31 19 10 5 6 9 11 14 28 44 49 49 50 55 58 60 62 66 72 74 74 75 77 78 78 77 76 72 68 68 69 69 71 74 76 77 81 84 85 89 95 100 103 106 107 107 105 104 108 113 117 121 126
235 232 229 230 234 239 240 237 230 223 219 218 227 240 247 250 250 244 240 239 240 238 229 230 239 241 233 224 218 207 198 199 201 194 133 48 35 21 12 13 14 19 36 54 57 56 57 59 61 64 67 70 74 78 79 79 80 81 81 81 82 81 79 77 76 75 75 78 81 82 82 83 84 87 90 94 96 98 100 101 102 103 106 109 111 114 117
244 238 236 237 238 238 233 223 213 210 213 219 228 237 243 244 241 238 234 232 232 231 227 225 229 234 232 228 225 222 214 205 197 197 192 115 51 34 20 18 19 25 46 70 70 67 68 68 67 68 70 70 72 76 81 84 85 85 85 84 85 86 85 83 81 82 83 83 81 80 80 82 84 86 89 90 92 93 96 98 101 105 109 112 115 117 119
253 252 250 242 232 224 215 204 202 215 227 231 233 238 241 239 234 230 227 225 224 226 226 225 226 230 231 229 227 227 225 222 216 207 194 171 85 40 33 30 24 29 57 87 89 81 78 77 74 70 69 72 76 82 86 88 88 88 87 85 85 86 85 82 81 81 82 80 79 79 81 83 86 87 89 89 89 91 93 95 99 105 113 119 125 132 138
251 246 242 234 228 225 219 211 214 228 236 236 236 236 233 226 220 224 225 222 220 222 225 228 229 230 231 228 226 225 224 224 225 222 208 195 186 24 41 50 41 41 69 97 102 95 86 83 84 83 82 85 89 92 93 92 91 89 88 87 86 86 85 85 86 87 86 83 81 82 83 85 87 89 90 90 92 95 98 99 102 107 111 113 115 121 128
251 243 243 247 249 248 244 241 241 243 244 243 241 237 229 220 221 229 231 225 218 217 221 226 229 230 230 228 226 225 221 218 219 220 213 205 209 245 357 58 64 67 85 104 112 110 101 94 94 96 97 97 98 99 98 96 94 92 91 91 91 91 90 90 90 90 89 89 88 87 87 89 93 96 95 94 95 98 100 102 105 108 109 109 112 117 122
266 263 263 262 261 259 258 256 253 249 245 243 241 237 230 224 224 229 231 227 221 219 221 223 228 232 232 229 226 226 223 217 216 217 212 205 207 222 234 186 146 136 125 120 120 120 117 112 107 106 106 105 105 105 104 102 100 97 95 92 92 93 94 94 93 92 91 93 94 95 95 96 99 100 100 97 96 96 99 101 103 103 103 102 104 107 111
Height
780 779 778 776 775 780 786 787 784 781 779 777 774 778 786 779 765 771 789 796 801 812 816 814 814 814 809 808 807 804 803 801 800 800 800 800 801 801 803 804 804 805 805 805 805 805 805 806 806 806 806 806 807 807 807 807 807 807 807 807 807 808 808 808 808 808 808 809 811 812 814 815 816 817 818 819 820 821 822 824 825 826 827 827 828 829 831
781 781 781 779 777 779 785 789 792 788 785 787 790 796 799 791 784 788 795 802 812 816 816 815 816 814 812 810 808 805 804 804 802 802 802 803 803 804 805 806 806 807 807 807 808 808 809 809 809 809 809 809 809 809 809 808 808 807 807 807 807 807 807 808 808 808 808 809 810 812 813 814 815 815 816 817 818 820 821 822 823 824 824 825 826 827 829
783 782 784 782 777 779 784 789 793 790 786 789 793 798 798 794 799 804 801 805 816 818 816 817 815 814 812 810 809 809 808 807 806 805 805 806 806 807 808 808 808 808 808 809 810 810 811 812 812 812 812 811 810 810 809 809 808 808 807 807 807 808 808 808 808 808 809 809 810 811 812 813 814 814 815 816 817 819 820 821 822 822 823 823 823 824 826
782 783 787 784 779 782 783 783 788 790 789 791 796 803 802 796 799 802 798 802 814 818 818 818 816 814 813 812 813 813 812 811 809 808 809 810 810 810 810 810 810 810 810 811 811 812 812 813 813 813 813 812 811 811 811 810 809 809 808 808 808 808 808 808 808 808 809 809 810 811 811 812 812 813 814 815 816 817 818 819 820 820 821 822 822 822 824
782 788 787 784 783 784 782 785 795 800 801 803 805 808 811 807 802 796 791 799 813 818 819 819 818 816 816 817 817 816 815 814 812 812 813 813 814 814 813 813 813 813 813 813 814 814 814 814 814 814 814 813 813 813 812 812 811 810 810 810 809 809 809 809 809 809 809 809 810 811 811 812 812 812 813 814 815 815 816 817 817 818 819 820 820 821 822
783 792 787 786 789 787 787 798 808 806 803 803 806 811 815 813 808 802 800 807 816 818 818 819 819 820 821 821 821 819 818 817 815 816 817 816 817 817 816 816 816 816 817 816 816 816 816 816 816 815 815 814 814 814 813 812 812 811 811 811 811 811 810 810 810 810 809 810 810 810 811 811 812 812 812 813 814 814 815 815 816 817 817 818 819 819 820
786 792 787 787 791 792 797 807 808 804 803 803 805 812 815 813 811 810 809 813 816 817 819 821 821 823 824 823 823 823 821 820 819 819 819 820 820 819 819 819 819 819 819 819 819 819 818 818 818 817 816 815 815 814 813 813 812 812 812 812 812 812 811 811 811 811 810 810 810 810 810 811 811 812 812 812 813 813 814 814 815 816 816 816 817 817 818
789 788 782 786 796 802 808 809 805 803 804 801 801 809 815 815 814 812 811 815 818 819 821 821 821 824 824 824 825 826 825 824 823 822 823 824 823 823 824 823 823 823 822 822 822 821 821 820 819 818 818 817 816 815 814 813 813 813 812 812 812 812 812 812 812 811 810 810 809 810 810 810 810 811 811 812 811 811 812 812 813 814 814 815 815 816 816
795 789 790 801 807 806 806 807 806 805 805 803 802 808 819 822 819 816 816 818 820 821 822 822 823 823 821 821 825 827 827 827 827 827 827 827 827 827 827 827 826 826 825 825 824 823 823 822 821 820 819 818 817 816 815 814 814 813 813 812 812 812 812 812 811 811 810 809 808 808 809 809 810 810 810 811 810 810 810 811 811 812 813 813 813 814 815
803 792 794 805 801 793 796 804 807 807 808 809 805 806 816 823 822 820 819 819 821 822 822 823 825 823 819 819 825 828 829 829 829 829 829 829 830 830 829 829 829 828 827 826 825 824 823 823 822 821 820 819 818 817 816 815 815 814 813 813 812 812 811 811 811 810 809 808 808 808 808 808 809 809 810 810 810 810 810 810 810 811 811 812 812 813 814
801 786 782 791 792 793 802 807 808 807 809 812 807 801 809 821 825 822 820 821 822 823 822 823 824 820 816 819 826 830 830 831 830 830 830 830 831 831 830 830 829 828 827 826 825 824 823 822 821 820 819 819 818 818 817 816 815 815 814 813 812 811 811 810 810 810 809 808 808 807 807 807 807 808 809 810 810 810 810 810 810 810 811 811 812 813 814
796 788 786 795 801 807 812 810 808 808 810 811 803 795 803 819 826 823 821 822 823 824 824 823 821 820 818 822 828 832 832 832 832 832 831 831 831 830 830 830 829 828 827 825 824 824 823 822 821 820 819 819 818 818 818 816 816 815 814 813 812 811 810 809 809 809 808 808 807 807 806 806 806 807 808 809 809 809 809 810 810 810 811 811 812 812 814
795 794 795 802 808 812 813 811 809 811 811 806 798 797 808 821 825 823 823 823 824 825 823 821 822 825 827 828 831 833 833 833 833 833 833 832 831 830 830 829 828 827 826 825 825 824 823 822 822 820 819 818 818 817 816 816 815 815 814 813 811 810 809 808 807 807 807 807 806 806 806 806 806 806 807 807 808 808 809 809 809 810 811 811 811 812 813
806 803 800 802 806 812 815 813 811 810 806 800 802 812 820 822 822 825 826 825 826 827 825 825 827 829 831 832 833 834 834 834 834 833 833 831 831 830 829 828 827 826 825 824 824 823 822 822 821 820 819 818 817 816 815 814 814 813 812 811 810 809 808 807 806 805 805 805 805 805 805 804 804 805 805 805 806 807 807 808 809 810 810 811 811 812 813
812 807 803 799 802 811 816 813 808 807 806 807 814 822 824 823 824 826 826 826 828 827 827 829 830 831 832 834 834 834 834 834 834 833 833 832 831 830 829 828 827 826 825 823 823 822 821 820 820 819 818 817 816 815 813 813 812 811 810 810 809 808 807 806 805 804 803 803 803 804 804 803 803 803 803 804 805 805 806 806 806 808 809 810 811 812 812
806 801 804 807 810 815 816 811 809 811 813 816 818 819 821 824 825 824 825 827 829 828 828 830 830 831 833 834 834 834 834 833 834 833 833 832 831 830 829 828 827 826 825 823 822 821 820 819 819 818 817 816 815 813 812 811 810 809 808 807 807 806 805 804 804 802 802 801 801 801 802 802 802 802 802 802 802 803 804 804 804 805 807 808 809 810 811
814 809 813 818 819 818 815 812 813 816 817 818 819 818 820 824 824 825 826 827 828 829 829 829 830 832 833 834 835 835 834 834 834 833 833 833 832 831 830 828 827 826 825 823 822 820 819 819 817 817 816 815 813 811 810 809 808 807 806 805 804 804 803 802 802 801 800 799 799 799 799 800 800 800 800 801 801 800 801 801 802 803 805 806 807 808 810
820 818 820 821 820 819 819 818 819 819 819 821 821 821 822 824 825 826 827 828 830 831 830 831 832 834 835 835 835 835 835 835 834 833 833 832 831 830 829 828 827 826 824 822 821 819 818 817 816 815 814 813 811 809 808 807 806 805 804 803 802 801 800 800 799 799 798 797 797 797 796 797 798 798 799 800 800 800 801 801 801 801 802 803 805 806 807
818 819 822 822 821 822 823 822 822 823 823 823 823 823 824 826 826 827 828 829 830 830 830 832 833 834 835 835 835 835 835 834 833 833 832 831 831 830 829 827 826 824 822 821 819 818 816 815 814 813 812 811 809 807 806 805 803 802 801 800 798 797 797 797 797 796 796 795 795 794 794 794 795 796 797 798 800 800 800 800 801 801 801 801 801 803 806
818 819 821 823 823 823 824 823 823 823 824 825 825 826 826 827 827 828 829 829 829 830 831 832 832 832 833 834 833 834 833 832 832 832 831 830 830 829 828 827 825 824 822 820 819 817 815 813 812 811 810 808 807 806 804 803 801 799 798 796 795 794 793 793 793 793 793 793 792 792 792 792 792 793 793 795 796 798 797 797 798 800 801 801 800 802 805
821 822 822 824 824 823 823 823 823 824 824 825 827 827 827 828 828 829 830 830 831 831 831 832 832 832 832 832 833 833 832 831 831 830 830 830 829 828 827 826 825 823 822 820 818 816 814 812 811 809 808 806 804 803 801 800 799 797 795 794 792 791 790 789 789 789 789 789 789 789 789 789 789 790 790 790 792 793 794 794 796 797 799 800 801 803 805
818 818 818 820 820 818 819 822 823 824 825 826 827 828 829 829 829 830 831 831 832 832 833 833 833 832 832 832 833 832 831 831 830 830 829 828 827 826 825 823 822 821 820 818 817 814 812 811 809 807 805 803 801 800 798 797 796 794 793 792 789 787 786 786 784 784 785 785 786 786 786 786 786 787 787 787 788 789 790 792 794 795 796 797 799 801 802
813 812 814 817 817 816 818 821 822 825 826 826 827 828 829 830 831 831 832 832 832 833 833 833 833 833 832 832 832 831 831 830 829 829 828 826 825 824 822 821 820 819 817 816 814 812 810 808 806 804 802 800 798 797 795 794 792 791 790 789 787 785 784 782 781 781 781 781 782 782 782 783 783 784 785 785 786 787 788 790 791 792 792 793 795 797 798
812 813 815 817 816 817 820 822 823 825 827 826 828 829 830 831 832 832 832 832 833 833 833 833 833 833 833 832 832 831 829 829 828 827 826 825 824 822 821 820 819 817 815 813 811 809 807 806 804 802 799 797 795 793 791 790 788 787 786 785 783 782 781 780 779 779 778 777 778 779 779 780 780 781 782 783 784 785 786 787 788 789 789 791 792 794 795
812 814 817 819 819 820 823 824 825 826 827 827 828 829 830 831 832 832 833 833 833 833 833 832 833 833 832 831 831 830 829 828 827 826 825 824 823 821 820 819 817 815 813 811 809 807 805 803 801 799 796 793 791 789 787 785 784 782 781 780 779 778 777 777 777 776 776 775 775 775 776 777 778 778 779 780 781 782 784 786 787 788 788 789 790 791 793
815 817 819 821 822 823 824 824 825 827 827 828 828 829 830 831 831 832 833 833 833 834 833 832 832 832 832 831 830 829 829 827 826 825 824 823 822 820 819 817 816 814 812 809 807 805 803 800 798 795 792 789 787 785 783 781 779 778 776 775 774 773 773 773 773 773 773 772 772 772 773 774 775 776 776 777 778 779 781 783 785 786 786 786 787 789 791
817 818 819 821 823 825 824 824 825 826 827 828 829 829 830 831 831 832 833 833 833 833 833 832 832 831 831 831 830 829 828 827 825 825 823 822 821 819 817 816 814 812 810 808 806 803 801 798 795 792 789 786 783 781 779 777 775 773 771 770 769 768 768 768 769 769 770 770 769 769 770 770 771 773 774 775 776 777 778 779 781 782 784 784 786 788 790
819 819 819 819 821 822 823 824 825 827 828 829 829 830 831 831 832 832 832 832 833 833 833 832 832 831 831 830 829 828 827 826 824 823 822 821 820 818 816 815 812 810 808 806 804 801 799 796 793 790 786 782 780 777 775 772 770 768 766 765 764 763 763 763 764 765 766 766 766 767 767 768 769 770 771 772 774 775 776 777 778 779 782 783 785 787 789
819 820 820 820 821 821 823 825 826 827 828 829 830 830 831 831 832 831 831 832 832 832 832 831 831 831 830 829 828 827 826 825 824 823 822 820 819 817 815 813 811 809 807 805 802 800 797 793 790 787 782 779 776 773 770 767 765 762 760 759 758 758 758 759 760 761 762 763 763 764 764 765 766 767 768 770 772 773 775 776 776 778 780 782 784 787 790
819 820 820 821 822 822 823 825 826 827 828 829 829 830 831 831 831 830 830 831 831 831 831 831 830 830 829 828 827 827 825 824 823 822 821 819 818 816 814 812 810 808 805 803 801 798 794 791 788 784 780 776 772 769 765 762 759 756 754 754 753 753 754 755 756 758 759 759 760 761 761 763 764 765 766 767 769 771 773 774 776 778 780 782 784 787 789
819 821 821 822 823 823 823 825 826 826 828 829 829 830 831 831 830 830 829 830 830 830 829 830 829 829 828 827 826 826 825 823 822 820 819 818 817 815 813 812 810 807 804 802 799 796 793 789 786 782 778 774 770 766 762 759 755 752 749 749 749 750 751 752 753 755 756 757 758 758 759 761 762 763 764 765 767 769 771 773 775 777 779 781 784 786 788
819 822 822 823 824 824 823 824 825 826 827 829 829 829 829 829 829 828 828 828 828 828 828 829 828 828 827 826 825 825 823 822 820 819 818 817 815 814 812 810 809 807 804 801 798 795 792 789 785 781 777 773 768 765 761 757 753 749 747 746 747 748 749 750 751 753 754 756 756 757 758 760 761 762 762 764 766 768 770 772 774 776 778 781 783 785 786
818 820 821 822 823 824 823 824 825 825 826 827 827 827 827 827 827 827 827 827 827 827 827 827 827 827 826 825 824 823 822 820 819 818 816 815 814 812 810 808 807 805 802 800 798 795 792 788 784 780 776 772 768 764 761 757 754 750 748 747 747 747 748 749 750 752 753 754 755 756 757 759 760 761 762 763 765 767 769 771 773 775 778 780 782 783 785
814 815 817 818 819 820 821 821 822 824 825 825 826 826 826 826 826 826 826 826 826 826 826 826 826 826 825 824 823 822 821 819 818 817 815 814 813 811 809 807 805 803 801 799 797 794 790 787 783 779 775 772 768 765 761 758 755 753 750 749 748 748 748 749 750 752 753 753 754 756 757 759 761 762 762 763 765 767 769 771 773 775 777 779 781 783 784
814 814 816 817 817 818 818 819 820 822 823 824 824 825 825 825 825 824 824 824 824 824 824 824 824 824 824 823 822 821 820 819 818 817 816 814 813 811 809 806 804 801 799 797 795 792 789 786 783 779 776 772 769 766 762 760 757 755 753 751 750 750 750 750 751 752 753 754 755 756 757 759 761 762 763 764 766 767 770 772 773 775 778 779 781 784 786
814 814 816 816 817 817 818 819 819 821 822 823 823 823 823 823 823 822 822 822 822 822 822 822 823 823 822 822 821 821 820 819 818 817 815 814 812 811 809 806 804 801 798 796 794 791 789 786 784 780 777 774 771 767 764 762 759 757 755 753 752 752 752 752 752 753 754 755 756 757 758 760 762 763 764 765 766 768 770 772 774 776 778 780 782 784 787
813 814 815 816 816 817 818 818 819 820 821 822 822 822 822 822 821 821 821 821 821 821 821 821 821 821 821 820 820 820 819 819 817 816 815 813 812 810 808 806 804 802 800 797 794 791 789 787 785 781 778 776 773 770 767 764 761 759 757 756 755 754 754 754 754 755 756 757 758 759 760 762 763 764 765 767 768 770 772 774 775 777 779 781 783 785 788
813 814 815 815 816 817 817 818 819 820 820 821 821 821 821 820 820 820 820 820 820 820 820 819 820 820 819 819 819 819 819 818 817 815 814 813 811 810 809 807 806 804 802 800 796 794 791 789 786 783 781 778 775 773 770 767 764 762 761 759 758 757 757 757 757 758 759 759 760 762 763 764 765 766 767 769 771 772 773 775 777 778 780 782 784 786 790
812 813 814 815 816 816 817 818 818 819 819 819 820 819 819 819 819 818 818 819 819 819 819 819 819 819 818 818 818 818 817 817 816 814 813 813 811 810 809 808 807 806 804 801 798 796 793 791 788 786 783 780 778 776 773 770 767 766 764 763 762 761 760 760 760 761 762 762 763 764 765 766 767 768 770 771 773 775 776 777 778 779 782 784 786 789 793
811 812 813 814 815 815 816 817 817 817 818 818 818 818 818 818 817 817 817 818 818 818 818 818 818 818 817 817 817 817 816 816 815 814 813 812 811 810 809 808 807 805 803 801 799 797 795 792 790 787 785 783 780 779 776 773 771 770 768 767 766 765 765 764 764 764 765 766 766 767 768 769 770 771 773 774 776 777 779 780 781 782 784 787 789 793 796
810 811 812 813 813 814 814 815 815 816 816 817 817 817 816 816 816 816 816 816 817 817 817 817 817 817 817 816 816 816 816 815 814 814 813 813 812 811 809 808 807 805 803 802 800 798 795 793 791 789 787 785 783 782 779 777 775 774 773 772 771 770 770 769 769 769 769 769 770 770 771 772 773 774 776 777 778 780 782 783 784 785 788 790 793 795 797
809 810 811 811 812 812 813 813 814 814 815 815 815 815 815 815 815 814 815 815 816 816 816 816 816 816 816 816 816 815 815 814 814 814 813 813 812 811 810 809 807 806 804 802 800 798 796 794 792 790 789 787 786 784 782 780 778 777 777 776 775 775 774 774 774 774 774 774 774 774 775 775 776 777 778 780 781 783 785 786 787 789 791 793 795 797 798
807 808 809 809 810 810 811 812 812 813 813 813 814 814 814 813 813 813 813 814 814 814 815 815 815 815 815 815 815 814 814 814 814 813 813 813 812 812 811 809 808 806 804 803 801 799 797 796 794 792 791 789 788 786 784 783 781 780 780 779 779 778 778 778 778 778 778 778 778 778 779 779 780 781 782 783 785 786 787 789 790 792 794 796 798 799 801
805 806 806 806 807 808 809 810 811 811 811 812 812 812 812 812 812 812 812 813 813 813 814 814 814 814 814 814 814 814 814 814 814 814 813 813 812 811 810 809 808 806 805 803 802 801 799 797 796 794 793 792 790 788 786 785 784 783 782 782 782 782 782 782 782 782 782 782 782 783 783 783 784 785 786 787 788 789 791 792 793 795 797 799 801 802 804
803 803 804 804 805 806 807 807 808 809 809 810 811 811 811 811 811 811 811 812 812 812 812 812 813 813 813 813 814 814 814 814 814 814 813 812 812 811 810 809 807 806 805 804 803 802 800 799 798 797 795 794 792 790 789 788 787 786 785 785 785 785 785 785 786 786 786 786 786 787 787 787 788 789 790 791 791 792 794 795 797 799 801 802 804 805 807
800 801 802 802 803 803 804 805 806 807 808 809 809 809 809 810 810 810 810 810 811 811 811 811 812 812 812 813 813 813 813 813 814 813 813 813 812 811 810 809 808 807 806 805 804 803 802 801 800 799 797 796 794 793 791 791 790 789 788 788 788 788 788 788 788 789 789 789 790 790 790 791 791 792 793 793 794 796 797 798 800 802 803 805 806 807 809
798 798 799 799 800 800 801 803 804 805 806 807 807 807 807 808 808 808 809 809 809 810 810 810 811 811 811 811 812 812 812 813 813 813 813 812 812 811 810 810 808 807 807 806 805 804 803 802 802 800 799 798 796 795 794 793 793 792 792 791 791 791 791 791 791 792 792 792 793 793 794 794 795 796 796 797 798 799 800 801 802 803 805 806 808 809 810
796 796 796 796 797 798 800 801 802 803 803 803 803 804 804 805 806 806 807 808 808 808 809 809 809 810 810 810 810 811 811 811 812 812 812 812 811 811 811 810 809 808 807 807 806 806 805 804 803 802 801 800 799 797 797 796 795 795 795 795 794 794 794 794 795 795 795 795 796 797 797 798 799 799 800 800 801 802 802 803 804 805 807 808 809 810 811
794 794 795 795 796 797 797 798 799 800 799 799 800 801 802 803 804 804 805 806 806 807 807 808 808 809 809 809 809 810 810 810 810 811 811 811 811 811 810 810 809 808 808 807 807 807 806 805 805 804 803 802 801 800 799 799 798 798 797 797 797 797 797 797 798 798 798 799 799 800 800 801 801 802 802 803 803 804 805 806 806 807 808 809 810 811 812
792 793 793 793 793 794 794 795 795 795 795 796 797 798 799 800 801 802 802 803 804 805 805 806 806 807 808 808 808 808 809 809 809 810 810 810 810 810 810 810 809 809 808 808 808 807 807 806 806 805 804 803 803 802 802 801 801 800 800 800 800 800 800 800 800 800 801 801 802 802 803 803 804 804 805 805 806 806 807 808 809 809 810 811 812 813 813
790 790 790 790 790 791 791 791 792 792 792 793 794 795 796 797 798 799 799 801 802 803 803 804 804 805 806 806 807 807 807 808 808 809 809 809 810 810 810 809 809 809 808 808 808 808 808 807 807 806 806 805 805 805 804 804 804 803 803 803 803 803 803 803 803 803 804 804 804 805 805 806 806 807 807 808 808 809 809 810 811 811 812 813 813 814 814
787 787 787 787 788 788 788 789 789 789 790 791 792 793 793 795 796 796 797 798 799 800 801 801 802 802 803 804 805 806 806 806 807 807 808 808 809 809 809 809 809 809 809 809 808 808 808 808 808 808 808 807 807 807 807 806 806 806 806 806 806 806 806 806 806 807 807 807 807 808 808 809 809 810 810 810 811 811 811 812 812 813 813 814 814 815 815